Weather History for Torrington, WY

Change the Weather History Date:

Wednesday, November 28, 2012

  Actual Average Record
Temperature  
Mean Temperature 37 °F 30 °F  
Max Temperature 56 °F 44 °F 65 °F (1998)
Min Temperature 17 °F 17 °F -1 °F (2001)
Degree Days  
Heating Degree Days 28 35  
Month to date heating degree days 678 803  
Since 1 July heating degree days 1304 1513  
Cooling Degree Days 0 0  
Month to date cooling degree days 0 0  
Year to date cooling degree days 1021 678  
Moisture  
Dew Point 19 °F    
Average Humidity 54    
Maximum Humidity 84    
Minimum Humidity 24    
Precipitation  
Precipitation 0.00 in 0.01 in 0.03 in (2004)
Month to date precipitation 0.09 0.42  
Year to date precipitation 7.00 13.82  
Sea Level Pressure  
Sea Level Pressure 30.13 in    
Wind  
Wind Speed 4 mph (SSE)    
Max Wind Speed 16 mph    
Max Gust Speed 22 mph    
Visibility 10 miles    
Events      
T = Trace of Precipitation, MM = Missing Value Source: NWS Daily Summary

Daily Weather History Graph

Daily Weather History Graph

Search for Another Location

Airport:

Trip Planner

Search our weather history database for the weather conditions in past years. The results will help you decide how hot, cold, wet, or windy it might be!

Date:

Astronomy

Nov. 28, 2012 Rise Set
Actual Time 7:02 AM MST 4:26 PM MST
Civil Twilight 6:31 AM MST 4:57 PM MST
Nautical Twilight 5:56 AM MST 5:32 PM MST
Astronomical Twilight 5:23 AM MST 6:05 PM MST
Moon 4:43 PM MST (11/28) 7:02 AM MST (11/28)
Length of Visible Light 10h 26m
Length of Day
9h 24m
Full, 100% of the Moon is Illuminated
Nov 28
Full
Dec 6
Last Quarter
Dec 13
New
Dec 19
First Quarter
Dec 28
Full

Hourly Weather History & Observations

Time (MST) Temp. Windchill Dew Point Humidity Pressure Visibility Wind Dir Wind Speed Gust Speed Precip Events Conditions
12:53 AM 21.9 °F 15.7 °F 16.0 °F 78% 30.22 in 10.0 mi SE 4.6 mph - N/A   Clear
1:53 AM 19.9 °F 11.1 °F 15.1 °F 81% 30.23 in 10.0 mi ENE 6.9 mph - N/A   Clear
2:53 AM 19.9 °F - 16.0 °F 85% 30.23 in 10.0 mi Calm Calm - N/A   Clear
3:53 AM 19.0 °F - 15.1 °F 85% 30.22 in 10.0 mi Calm Calm - N/A   Clear
4:53 AM 19.9 °F - 15.1 °F 81% 30.22 in 10.0 mi Calm Calm - N/A   Clear
5:53 AM 19.0 °F 13.9 °F 14.0 °F 81% 30.22 in 10.0 mi SE 3.5 mph - N/A   Clear
6:53 AM 19.9 °F 13.4 °F 15.1 °F 81% 30.23 in 10.0 mi East 4.6 mph - N/A   Clear
7:53 AM 21.0 °F - 17.1 °F 85% 30.24 in 10.0 mi Calm Calm - N/A   Clear
8:53 AM 25.0 °F 20.7 °F 19.9 °F 81% 30.25 in 10.0 mi East 3.5 mph - N/A   Clear
9:53 AM 35.1 °F - 27.0 °F 72% 30.20 in 10.0 mi Calm Calm - N/A   Clear
10:53 AM 48.9 °F - 21.9 °F 35% 30.16 in 10.0 mi WNW 8.1 mph - N/A   Clear
11:53 AM 54.0 °F - 17.1 °F 23% 30.10 in 10.0 mi West 10.4 mph - N/A   Clear
12:53 PM 55.9 °F - 19.0 °F 24% 30.07 in 10.0 mi West 12.7 mph - N/A   Clear
1:53 PM 55.9 °F - 19.9 °F 25% 30.05 in 10.0 mi South 5.8 mph - N/A   Clear
2:53 PM 54.0 °F - 19.9 °F 26% 30.04 in 10.0 mi South 4.6 mph - N/A   Clear
3:53 PM 52.0 °F - 19.0 °F 27% 30.04 in 10.0 mi South 3.5 mph - N/A   Clear
4:53 PM 46.9 °F - 21.9 °F 37% 30.06 in 10.0 mi SE 5.8 mph - N/A   Clear
5:53 PM 46.9 °F - 21.0 °F 36% 30.06 in 10.0 mi Calm Calm - N/A   Clear
6:53 PM 39.0 °F - 19.9 °F 46% 30.07 in 10.0 mi Calm Calm - N/A   Clear
7:53 PM 39.0 °F 36.8 °F 19.9 °F 46% 30.08 in 10.0 mi South 3.5 mph - N/A   Clear
8:53 PM 32.0 °F 27.5 °F 19.9 °F 61% 30.09 in 10.0 mi SSE 4.6 mph - N/A   Clear
9:53 PM 28.0 °F 21.7 °F 19.0 °F 69% 30.08 in 10.0 mi ESE 5.8 mph - N/A   Clear
10:53 PM 30.9 °F 27.5 °F 19.0 °F 61% 30.01 in 10.0 mi SSE 3.5 mph - N/A   Clear
11:53 PM 24.1 °F 19.7 °F 18.0 °F 77% 30.01 in 10.0 mi East 3.5 mph - N/A   Clear